KD7TTL Weather Reports


Display with metric or nautical units.
time (UTC)temp
F
wind
direction
speed
MPH
gust
MPH
rain 1hr
in
rain 24hr
in
rain mn
in
humidity
%
barometer
mb
20260904195517 67 221 1.0 4.0 0.00 0.01 0.01 66 1014.5
20260904195013 67 193 1.0 4.0 0.00 0.01 0.01 67 1014.6
20260904194547 67 80 1.0 4.0 0.00 0.01 0.01 66 1014.6
20260904194012 67 153 1.0 5.0 0.00 0.01 0.01 66 1014.7
20260904193514 67 126 1.0 5.0 0.00 0.01 0.01 68 1014.7
20260904193036 67 265 1.0 5.0 0.00 0.01 0.01 69 1014.7
20260904192515 67 137 1.0 4.0 0.00 0.01 0.01 69 1014.7
20260904192015 66 298 1.0 6.0 0.00 0.01 0.01 72 1014.7
20260904191539 65 93 1.0 6.0 0.00 0.01 0.01 74 1014.6
20260904191016 64 198 1.0 5.0 0.00 0.01 0.01 73 1014.5
20260904190516 63 165 2.0 7.0 0.00 0.01 0.01 72 1014.5
20260904190032 63 158 2.0 7.0 0.00 0.01 0.01 71 1014.7
20260904185517 63 43 1.0 3.0 0.00 0.01 0.01 74 1014.7
20260904185012 63 61 1.0 4.0 0.00 0.01 0.01 74 1014.7
20260904184531 63 55 2.0 4.0 0.00 0.01 0.01 73 1014.8
20260904184012 63 61 0.0 3.0 0.00 0.01 0.01 75 1014.7
20260904183516 63 239 1.0 3.0 0.01 0.01 0.01 75 1014.9
20260904183034 64 137 1.0 5.0 0.01 0.01 0.01 74 1014.8
20260904182518 64 41 1.0 5.0 0.01 0.01 0.01 76 1014.8
20260904182018 62 129 1.0 3.0 0.01 0.01 0.01 77 1014.7
20260904181528 61 86 0.0 3.0 0.01 0.01 0.01 79 1014.7
20260904181015 61 239 1.0 4.0 0.01 0.01 0.01 79 1014.9
20260904180516 60 59 2.0 4.0 0.01 0.01 0.01 79 1014.9
20260904180031 60 51 0.0 5.0 0.01 0.01 0.01 82 1014.8
20260904175515 60 334 3.0 5.0 0.01 0.01 0.01 82 1014.8
20260904175014 60 128 1.0 4.0 0.01 0.01 0.01 83 1014.7
20260904174555 59 19 1.0 5.0 0.01 0.01 0.01 84 1014.7
20260904174017 58 200 1.0 5.0 0.01 0.01 0.01 87 1014.7
20260904173514 58 247 0.0 3.0 0.00 0.00 0.00 90 1014.6
20260904173032 57 51 2.0 3.0 0.00 0.00 0.00 89 1014.6
20260904172518 57 38 1.0 3.0 0.00 0.00 0.00 89 1014.6
20260904172013 56 47 1.0 2.0 0.00 0.00 0.00 90 1014.7
20260904171528 56 120 0.0 2.0 0.00 0.00 0.00 90 1014.7
20260904171015 56 41 0.0 2.0 0.00 0.00 0.00 91 1014.7
20260904170517 56 178 0.0 4.0 0.00 0.00 0.00 91 1014.7
20260904170032 56 187 1.0 4.0 0.00 0.00 0.00 93 1014.7
20260904165516 55 26 0.0 2.0 0.00 0.00 0.00 93 1014.7
20260904165016 55 93 0.0 2.0 0.00 0.00 0.00 93 1014.6
20260904164530 55 153 0.0 2.0 0.00 0.00 0.00 93 1014.6
20260904164017 55 137 0.0 2.0 0.00 0.00 0.00 94 1014.6
20260904163517 55 93 0.0 2.0 0.00 0.00 0.00 94 1014.6
20260904163036 54 221 0.0 2.0 0.00 0.00 0.00 95 1014.7
20260904162512 54 120 0.0 2.0 0.00 0.00 0.00 95 1014.7
20260904162013 54 221 0.0 2.0 0.00 0.00 0.00 95 1014.7
20260904161530 54 137 0.0 2.0 0.00 0.00 0.00 95 1014.6
20260904161012 53 93 0.0 1.0 0.00 0.00 0.00 95 1014.6
20260904160516 53 137 0.0 1.0 0.00 0.00 0.00 95 1014.6
20260904160031 53 93 0.0 1.0 0.00 0.00 0.00 96 1014.6
20260904155514 53 93 0.0 1.0 0.00 0.00 0.00 95 1014.5
20260904155015 53 68 0.0 1.0 0.00 0.00 0.00 95 1014.5
20260904154529 53 178 0.0 1.0 0.00 0.00 0.00 95 1014.5
20260904154014 52 93 0.0 1.0 0.00 0.00 0.00 95 1014.5
20260904153514 52 137 0.0 2.0 0.00 0.00 0.00 95 1014.5
20260904153042 52 61 0.0 2.0 0.00 0.00 0.00 95 1014.5
20260904152518 52 68 0.0 1.0 0.00 0.00 0.00 95 1014.4
20260904152015 52 76 0.0 2.0 0.00 0.00 0.00 95 1014.4
20260904151529 52 51 0.0 2.0 0.00 0.00 0.00 95 1014.3
20260904151018 52 51 0.0 2.0 0.00 0.00 0.00 95 1014.2
20260904150514 52 76 0.0 1.0 0.00 0.00 0.00 95 1014.2
20260904150032 51 34 0.0 2.0 0.00 0.00 0.00 94 1014.1
20260904145516 51 93 0.0 2.0 0.00 0.00 0.00 94 1014.2
20260904145014 51 51 0.0 2.0 0.00 0.00 0.00 94 1014.1
20260904144529 51 76 0.0 1.0 0.00 0.00 0.00 94 1014.0
20260904144015 51 51 0.0 1.0 0.00 0.00 0.00 94 1014.0
20260904143515 51 26 0.0 1.0 0.00 0.00 0.00 94 1013.9
20260904143032 51 51 0.0 1.0 0.00 0.00 0.00 94 1013.8
20260904142514 51 9 0.0 1.0 0.00 0.00 0.00 94 1013.8
20260904142016 51 9 0.0 1.0 0.00 0.00 0.00 94 1013.9
20260904141530 51 51 0.0 1.0 0.00 0.00 0.00 94 1013.8
20260904141020 51 51 0.0 1.0 0.00 0.00 0.00 94 1013.8
20260904140513 51 51 0.0 1.0 0.00 0.00 0.00 94 1013.7
20260904140038 51 51 0.0 1.0 0.00 0.00 0.00 94 1013.8
20260904135514 51 26 0.0 1.0 0.00 0.00 0.00 94 1013.7
20260904135017 51 9 0.0 1.0 0.00 0.00 0.00 94 1013.5
20260904134530 51 68 0.0 1.0 0.00 0.00 0.00 94 1013.4
20260904134016 51 76 0.0 1.0 0.00 0.00 0.00 94 1013.3
20260904133503 51 51 0.0 1.0 0.00 0.00 0.00 94 1013.3
20260904133006 51 34 0.0 1.0 0.00 0.00 0.00 94 1013.2
20260904132504 51 51 0.0 1.0 0.00 0.00 0.00 94 1013.1
20260904132001 51 51 0.0 1.0 0.00 0.00 0.00 94 1013.1
20260904131502 51 93 0.0 0.0 0.00 0.00 0.00 94 1013.1
20260904131002 51 68 0.0 0.0 0.00 0.00 0.00 94 1013.0
20260904130521 51 51 0.0 1.0 0.00 0.00 0.00 94 1013.0
20260904130027 51 51 0.0 1.0 0.00 0.00 0.00 94 1012.9
20260904125514 51 76 0.0 1.0 0.00 0.00 0.00 94 1012.9
20260904125014 51 34 0.0 1.0 0.00 0.00 0.00 94 1012.9
20260904124531 51 51 0.0 1.0 0.00 0.00 0.00 94 1012.9
20260904124016 51 265 0.0 2.0 0.00 0.00 0.00 94 1012.9
20260904123519 51 68 0.0 2.0 0.00 0.00 0.00 93 1012.8
20260904123036 51 76 0.0 1.0 0.00 0.00 0.00 93 1012.7
20260904122514 51 51 0.0 1.0 0.00 0.00 0.00 93 1012.8
20260904122016 51 9 0.0 1.0 0.00 0.00 0.00 93 1012.8
20260904121528 51 68 0.0 1.0 0.00 0.00 0.00 93 1012.8
20260904121016 51 68 0.0 1.0 0.00 0.00 0.00 93 1012.7
20260904120516 52 67 0.0 1.0 0.00 0.00 0.00 93 1012.7
20260904120036 51 51 0.0 1.0 0.00 0.00 0.00 93 1012.6
20260904115513 52 9 0.0 1.0 0.00 0.00 0.00 93 1012.5
20260904115015 52 51 0.0 1.0 0.00 0.00 0.00 93 1012.4
20260904114531 52 93 0.0 1.0 0.00 0.00 0.00 93 1012.4
20260904114013 52 9 0.0 1.0 0.00 0.00 0.00 93 1012.4
20260904113513 52 51 0.0 1.0 0.00 0.00 0.00 93 1012.4
20260904113029 52 51 0.0 1.0 0.00 0.00 0.00 93 1012.4
20260904112517 52 51 0.0 1.0 0.00 0.00 0.00 93 1012.3
20260904112016 52 51 0.0 1.0 0.00 0.00 0.00 93 1012.3
20260904111529 52 68 0.0 0.0 0.00 0.00 0.00 93 1012.2
20260904111013 52 51 0.0 1.0 0.00 0.00 0.00 93 1012.2
20260904110515 52 205 0.0 1.0 0.00 0.00 0.00 93 1012.1
20260904110038 52 51 0.0 1.0 0.00 0.00 0.00 93 1012.1
20260904105512 52 68 0.0 2.0 0.00 0.00 0.00 93 1012.1
20260904105015 52 51 0.0 2.0 0.00 0.00 0.00 93 1012.1
20260904104531 52 51 0.0 1.0 0.00 0.00 0.00 93 1012.0
20260904104012 52 239 0.0 1.0 0.00 0.00 0.00 93 1012.1
20260904103512 52 9 0.0 1.0 0.00 0.00 0.00 93 1012.1
20260904103028 52 51 0.0 1.0 0.00 0.00 0.00 93 1012.0
20260904102514 52 239 0.0 1.0 0.00 0.00 0.00 93 1012.0
20260904102011 52 93 0.0 1.0 0.00 0.00 0.00 93 1012.0
20260904101531 52 51 0.0 0.0 0.00 0.00 0.00 93 1012.0
20260904101013 52 93 0.0 1.0 0.00 0.00 0.00 93 1012.0
20260904100514 52 51 0.0 1.0 0.00 0.00 0.00 93 1011.9
20260904100030 52 68 0.0 1.0 0.00 0.00 0.00 92 1011.8
20260904095515 52 51 0.0 0.0 0.00 0.00 0.00 92 1011.7
20260904095013 52 51 0.0 0.0 0.00 0.00 0.00 92 1011.8
20260904094530 52 51 0.0 1.0 0.00 0.00 0.00 92 1011.8
20260904094014 52 51 0.0 1.0 0.00 0.00 0.00 92 1011.8
20260904093512 52 9 0.0 1.0 0.00 0.00 0.00 92 1011.8
20260904093032 52 68 0.0 0.0 0.00 0.00 0.00 92 1011.9
20260904092511 52 51 0.0 0.0 0.00 0.00 0.00 92 1011.9
20260904092014 52 51 0.0 1.0 0.00 0.00 0.00 92 1012.0
20260904091530 52 137 0.0 1.0 0.00 0.00 0.00 92 1012.0
20260904091016 52 51 0.0 1.0 0.00 0.00 0.00 92 1011.9
20260904090516 52 51 0.0 1.0 0.00 0.00 0.00 92 1012.0
20260904090031 52 68 0.0 1.0 0.00 0.00 0.00 92 1012.1
20260904085515 52 9 0.0 1.0 0.00 0.00 0.00 92 1012.1
20260904085014 53 93 0.0 1.0 0.00 0.00 0.00 92 1012.1
20260904084530 53 221 0.0 1.0 0.00 0.00 0.00 92 1012.2
20260904084016 53 51 0.0 1.0 0.00 0.00 0.00 92 1012.2
20260904083512 53 51 0.0 1.0 0.00 0.00 0.00 92 1012.2
20260904083030 53 51 0.0 1.0 0.00 0.00 0.00 92 1012.2
20260904082514 53 239 0.0 1.0 0.00 0.00 0.00 92 1012.3
20260904082014 53 137 0.0 2.0 0.00 0.00 0.00 92 1012.3
20260904081530 53 120 0.0 2.0 0.00 0.00 0.00 92 1012.3
20260904081013 53 61 0.0 1.0 0.00 0.00 0.00 92 1012.2
20260904080519 53 51 0.0 1.0 0.00 0.00 0.00 92 1012.2
20260904080030 53 126 0.0 1.0 0.00 0.00 0.00 92 1012.2
20260904075512 53 51 0.0 1.0 0.00 0.00 0.00 92 1012.2
20260904075014 53 51 0.0 1.0 0.00 0.00 0.00 92 1012.2
20260904074537 53 26 0.0 1.0 0.00 0.00 0.00 92 1012.3
20260904074014 53 51 0.0 1.0 0.00 0.00 0.00 91 1012.3
20260904073516 53 9 0.0 1.0 0.00 0.00 0.00 91 1012.3
20260904073029 53 221 0.0 1.0 0.00 0.00 0.00 91 1012.3
20260904072516 53 51 0.0 1.0 0.00 0.00 0.00 91 1012.3
20260904072013 53 51 0.0 1.0 0.00 0.00 0.00 91 1012.3
20260904071528 53 68 0.0 1.0 0.00 0.00 0.00 91 1012.3
20260904071015 53 51 0.0 1.0 0.00 0.00 0.00 91 1012.3
20260904070518 53 51 0.0 1.0 0.00 0.00 0.00 91 1012.3
20260904070042 53 221 0.0 1.0 0.00 0.00 0.00 90 1012.2
20260904065514 53 61 0.0 1.0 0.00 0.00 0.00 90 1012.2
20260904065014 53 51 0.0 1.0 0.00 0.00 0.00 90 1012.2
20260904064536 53 51 0.0 1.0 0.00 0.00 0.00 90 1012.1
20260904064012 53 68 0.0 1.0 0.00 0.00 0.00 90 1012.1
20260904063517 53 51 0.0 1.0 0.00 0.00 0.00 91 1012.2
20260904063028 53 93 0.0 1.0 0.00 0.00 0.00 91 1012.1
20260904062516 53 93 0.0 1.0 0.00 0.00 0.00 90 1012.1
20260904062015 53 61 0.0 1.0 0.00 0.00 0.00 90 1012.1
20260904061545 53 265 0.0 1.0 0.00 0.00 0.00 90 1012.0
20260904061015 53 51 0.0 1.0 0.00 0.00 0.00 90 1012.0
20260904060514 53 51 0.0 1.0 0.00 0.00 0.00 91 1011.9
20260904060032 53 9 0.0 1.0 0.00 0.00 0.00 91 1011.9
20260904055514 53 93 0.0 1.0 0.00 0.00 0.00 90 1011.9
20260904055012 53 51 0.0 1.0 0.00 0.00 0.00 90 1011.9
20260904054533 53 34 0.0 1.0 0.00 0.00 0.00 90 1012.0
20260904054011 53 68 0.0 1.0 0.00 0.00 0.00 90 1012.1
20260904053511 53 51 0.0 1.0 0.00 0.00 0.00 89 1012.0
20260904053033 53 68 0.0 1.0 0.00 0.00 0.00 89 1011.8
20260904052516 53 68 0.0 1.0 0.00 0.00 0.00 89 1011.9
20260904052015 53 93 0.0 1.0 0.00 0.00 0.00 89 1011.9
20260904051536 53 51 0.0 1.0 0.00 0.00 0.00 88 1011.9
20260904051017 53 68 0.0 1.0 0.00 0.00 0.00 89 1011.9
20260904050517 53 68 0.0 1.0 0.00 0.00 0.00 89 1011.8
20260904050028 53 9 0.0 1.0 0.00 0.00 0.00 88 1011.9
20260904045513 53 68 0.0 1.0 0.00 0.00 0.00 87 1011.8
20260904045012 53 51 0.0 1.0 0.00 0.00 0.00 87 1011.8
20260904044535 53 120 0.0 1.0 0.00 0.00 0.00 88 1011.8
20260904044014 54 51 0.0 1.0 0.00 0.00 0.00 87 1011.9
20260904043513 54 41 0.0 1.0 0.00 0.00 0.00 87 1011.8
20260904043027 54 51 0.0 1.0 0.00 0.00 0.00 86 1011.9
20260904042517 54 51 0.0 1.0 0.00 0.00 0.00 85 1011.9
20260904042017 54 51 0.0 1.0 0.00 0.00 0.00 86 1012.0
20260904041527 54 9 0.0 1.0 0.00 0.00 0.00 85 1012.0
20260904041014 54 51 0.0 2.0 0.00 0.00 0.00 85 1012.0
20260904040516 55 34 0.0 2.0 0.00 0.00 0.00 84 1012.0
20260904040030 55 9 0.0 1.0 0.00 0.00 0.00 84 1011.9
20260904035516 55 34 0.0 1.0 0.00 0.00 0.00 82 1011.8
20260904035014 55 51 0.0 1.0 0.00 0.00 0.00 82 1011.8
20260904034545 55 51 0.0 1.0 0.00 0.00 0.00 82 1011.8
20260904034017 55 51 0.0 1.0 0.00 0.00 0.00 82 1011.8
20260904033516 56 93 0.0 1.0 0.00 0.00 0.00 82 1011.8
20260904033031 56 137 0.0 1.0 0.00 0.00 0.00 82 1011.8
20260904032515 57 221 0.0 1.0 0.00 0.00 0.00 80 1011.7
20260904032015 57 68 0.0 1.0 0.00 0.00 0.00 80 1011.6
20260904031528 57 61 0.0 1.0 0.00 0.00 0.00 79 1011.5
20260904031014 58 93 0.0 1.0 0.00 0.00 0.00 79 1011.4
20260904030512 58 51 0.0 1.0 0.00 0.00 0.00 78 1011.3
20260904030028 58 51 0.0 1.0 0.00 0.00 0.00 77 1011.4
20260904025516 59 51 0.0 1.0 0.00 0.00 0.00 77 1011.4
20260904025014 59 9 0.0 1.0 0.00 0.00 0.00 78 1011.3
20260904024528 59 68 0.0 1.0 0.00 0.00 0.00 78 1011.3
20260904024014 60 51 0.0 1.0 0.00 0.00 0.00 78 1011.2
20260904023513 60 9 0.0 1.0 0.00 0.00 0.00 78 1011.2
20260904023030 60 51 0.0 1.0 0.00 0.00 0.00 78 1011.1
20260904022512 60 51 0.0 1.0 0.00 0.00 0.00 78 1011.1
20260904022019 61 51 0.0 1.0 0.00 0.00 0.00 75 1011.1
20260904021528 61 265 0.0 1.0 0.00 0.00 0.00 75 1011.0
20260904021011 61 51 0.0 1.0 0.00 0.00 0.00 76 1011.0
20260904020514 61 9 0.0 2.0 0.00 0.00 0.00 76 1010.9
20260904020031 61 51 0.0 2.0 0.00 0.00 0.00 76 1010.9
20260904015517 61 51 0.0 2.0 0.00 0.00 0.00 74 1010.9
20260904015015 61 9 0.0 1.0 0.00 0.00 0.00 75 1010.9
20260904014529 61 51 0.0 1.0 0.00 0.00 0.00 76 1010.9
20260904014013 62 9 0.0 1.0 0.00 0.00 0.00 76 1011.0
20260904013515 62 221 0.0 1.0 0.00 0.00 0.00 76 1010.9
20260904013029 62 34 0.0 1.0 0.00 0.00 0.00 75 1011.0
20260904012514 62 9 0.0 2.0 0.00 0.00 0.00 73 1010.9
20260904012014 62 51 0.0 2.0 0.00 0.00 0.00 73 1010.9
20260904011556 62 44 0.0 2.0 0.00 0.00 0.00 72 1011.0
20260904011016 63 34 0.0 1.0 0.00 0.00 0.00 72 1010.9
20260904010516 63 41 0.0 1.0 0.00 0.00 0.00 73 1010.9
20260904010030 63 51 0.0 1.0 0.00 0.00 0.00 73 1010.9
20260904005519 63 265 0.0 1.0 0.00 0.00 0.00 71 1010.9
20260904005014 63 93 0.0 1.0 0.00 0.00 0.00 71 1010.9
20260904004531 63 51 0.0 1.0 0.00 0.00 0.00 70 1010.9
20260904004014 63 137 0.0 3.0 0.00 0.00 0.00 69 1010.9
20260904003521 63 68 0.0 3.0 0.00 0.00 0.00 66 1010.9
20260904003029 64 133 0.0 3.0 0.00 0.00 0.00 63 1010.9
20260904002515 64 247 0.0 2.0 0.00 0.00 0.00 63 1010.8
20260904002014 64 149 0.0 5.0 0.00 0.00 0.00 64 1010.8
20260904001526 64 111 1.0 5.0 0.00 0.00 0.00 62 1010.8
20260904001016 64 186 0.0 4.0 0.00 0.01 0.00 63 1010.9
20260904000515 64 93 2.0 4.0 0.00 0.01 0.00 62 1010.9
20260904000040 64 202 1.0 3.0 0.00 0.02 0.00 63 1010.9
20260903235514 64 200 0.0 2.0 0.00 0.03 0.00 67 1010.9
20260903235012 64 51 0.0 4.0 0.00 0.04 0.00 64 1010.9
20260903234539 64 51 0.0 4.0 0.00 0.05 0.00 64 1011.0
20260903234014 64 51 0.0 2.0 0.00 0.06 0.00 63 1011.1
20260903233512 64 178 1.0 2.0 0.00 0.07 0.00 63 1011.1
20260903233030 64 51 0.0 2.0 0.00 0.08 0.00 64 1011.1
20260903232513 64 51 0.0 2.0 0.00 0.09 0.00 62 1011.0
20260903232016 64 51 0.0 2.0 0.00 0.09 0.00 62 1011.1
20260903231528 64 120 0.0 4.0 0.00 0.09 0.00 64 1011.1
20260903231014 64 309 0.0 4.0 0.00 0.10 0.00 63 1011.1
20260903230514 64 110 1.0 5.0 0.00 0.10 0.00 61 1011.1
20260903230041 64 132 2.0 5.0 0.00 0.10 0.00 58 1011.1
20260903225516 65 146 1.0 3.0 0.00 0.10 0.00 61 1011.2
20260903225012 65 9 0.0 5.0 0.00 0.10 0.00 58 1011.2
20260903224528 65 9 1.0 5.0 0.00 0.10 0.00 57 1011.2
20260903224016 65 129 1.0 4.0 0.00 0.10 0.00 58 1011.3
20260903223514 64 137 1.0 4.0 0.00 0.10 0.00 67 1011.2
20260903223029 64 239 1.0 4.0 0.00 0.10 0.00 59 1011.2
20260903222512 64 131 0.0 3.0 0.00 0.10 0.00 64 1011.2
20260903222014 64 68 1.0 4.0 0.00 0.10 0.00 62 1011.2
20260903221531 64 34 0.0 6.0 0.00 0.10 0.00 65 1011.2
20260903221012 64 137 1.0 6.0 0.00 0.10 0.00 61 1011.2
20260903220512 64 93 2.0 5.0 0.00 0.10 0.00 58 1011.2
20260903220034 65 9 1.0 4.0 0.00 0.10 0.00 58 1011.2
20260903215514 65 120 1.0 4.0 0.00 0.10 0.00 63 1011.2
20260903215017 64 153 1.0 4.0 0.00 0.10 0.00 63 1011.3
20260903214536 64 93 1.0 4.0 0.00 0.10 0.00 65 1011.2
20260903214016 64 215 1.0 4.0 0.00 0.10 0.00 66 1011.3
20260903213514 64 325 1.0 4.0 0.00 0.10 0.00 64 1011.3
20260903213033 64 43 2.0 4.0 0.00 0.10 0.00 66 1011.3
20260903212515 64 26 0.0 3.0 0.00 0.10 0.00 68 1011.4
20260903212015 64 61 0.0 4.0 0.00 0.10 0.00 67 1011.4
20260903211507 64 43 1.0 4.0 0.00 0.10 0.00 67 1011.4
20260903211003 64 68 2.0 6.0 0.00 0.10 0.00 69 1011.4
20260903210503 64 59 0.0 6.0 0.00 0.10 0.00 68 1011.4
20260903210005 64 55 1.0 5.0 0.00 0.10 0.00 69 1011.4
20260903205502 63 41 2.0 5.0 0.00 0.10 0.00 68 1011.3
20260903205003 63 48 2.0 3.0 0.00 0.10 0.00 67 1011.3
20260903204507 63 9 0.0 3.0 0.00 0.10 0.00 69 1011.3
20260903204006 62 22 0.0 3.0 0.00 0.10 0.00 70 1011.3
20260903203507 62 59 1.0 3.0 0.00 0.10 0.00 69 1011.3
20260903203008 62 178 0.0 2.0 0.00 0.10 0.00 71 1011.4
20260903202506 62 93 0.0 3.0 0.00 0.10 0.00 74 1011.4
20260903202003 61 44 1.0 3.0 0.00 0.10 0.00 74 1011.3
20260903201506 61 65 1.0 3.0 0.00 0.10 0.00 71 1011.3
20260903201001 61 61 1.0 5.0 0.00 0.10 0.00 71 1011.3
20260903200503 61 57 2.0 5.0 0.00 0.10 0.00 73 1011.4
20260903200031 61 47 1.0 4.0 0.00 0.10 0.00 75 1011.4